Weather History for KOCF - June, 2014

Change the Weather History Date:

Tuesday, June 10, 2014

  Actual Average Record
Temperature  
Mean Temperature 80 °F -  
Max Temperature 91 °F 88 °F 96 °F (1998)
Min Temperature 69 °F 67 °F 66 °F (2002)
Cooling Degree Days 15    
Growing Degree Days 30 (Base 50)    
Moisture  
Dew Point 65 °F    
Average Humidity 75    
Maximum Humidity 94    
Minimum Humidity 49    
Precipitation  
Precipitation 0.15 in - - ()
Sea Level Pressure  
Sea Level Pressure 30.01 in    
Wind  
Wind Speed 1 mph (SSW)    
Max Wind Speed 13 mph    
Max Gust Speed -    
Visibility 9 miles    
Events Rain , Thunderstorm    
Averages and records for this station are not official NWS values.
T = Trace of Precipitation, MM = Missing Value Source: NWS Daily Summary

Daily Weather History Graph

Daily Weather History Graph

Search for Another Location

Airport or City:

Trip Planner

Search our weather history database for the weather conditions in past years. The results will help you decide how hot, cold, wet, or windy it might be!

Date:

Astronomy

Jun. 10, 2014 Rise Set
Actual Time 6:29 AM EDT 8:27 PM EDT
Civil Twilight 6:02 AM EDT 8:54 PM EDT
Nautical Twilight 5:29 AM EDT 9:27 PM EDT
Astronomical Twilight 4:54 AM EDT 10:02 PM EDT
Moon 6:01 PM EDT (6/10) 4:21 AM EDT (6/10)
Length of Visible Light 14h 52m
Length of Day
13h 58m
Waxing Gibbous, 92% of the Moon is Illuminated
Jun 10
Waxing Gibbous
Jun 13
Full
Jun 19
Last Quarter
Jun 27
New
Jul 5
First Quarter

Hourly Weather History & Observations

Time (EDT) Temp. Heat Index Dew Point Humidity Pressure Visibility Wind Dir Wind Speed Gust Speed Precip Events Conditions
12:15 AM 73.4 °F - 64.4 °F 73% 30.01 in 10.0 mi Calm Calm - N/A   Clear
12:35 AM 71.6 °F - 64.4 °F 78% 30.01 in 10.0 mi Calm Calm - N/A   Clear
12:55 AM 71.6 °F - 64.4 °F 78% 30.01 in 10.0 mi Calm Calm - N/A   Clear
1:15 AM 71.6 °F - 64.4 °F 78% 30.01 in 10.0 mi Calm Calm - N/A   Clear
1:35 AM 71.6 °F - 64.4 °F 78% 30.01 in 10.0 mi Calm Calm - N/A   Clear
1:55 AM 71.6 °F - 64.4 °F 78% 30.01 in 10.0 mi Calm Calm - N/A   Clear
2:15 AM 71.6 °F - 64.4 °F 78% 30.01 in 10.0 mi Calm Calm - N/A   Clear
2:35 AM 71.6 °F - 64.4 °F 78% 30.01 in 10.0 mi Calm Calm - N/A   Clear
2:55 AM 71.6 °F - 64.4 °F 78% 30.00 in 10.0 mi Calm Calm - N/A   Clear
3:15 AM 71.6 °F - 64.4 °F 78% 30.00 in 10.0 mi Calm Calm - N/A   Clear
3:35 AM 71.6 °F - 64.4 °F 78% 30.00 in 10.0 mi Calm Calm - N/A   Clear
3:55 AM 71.6 °F - 64.4 °F 78% 29.99 in 10.0 mi Calm Calm - N/A   Clear
4:15 AM 71.6 °F - 64.4 °F 78% 29.99 in 10.0 mi Calm Calm - N/A   Clear
4:35 AM 71.6 °F - 64.4 °F 78% 29.99 in 10.0 mi Calm Calm - N/A   Clear
4:55 AM 69.8 °F - 64.4 °F 83% 29.99 in 9.0 mi Calm Calm - N/A   Clear
5:15 AM 69.8 °F - 64.4 °F 83% 29.99 in 10.0 mi Calm Calm - N/A   Clear
5:35 AM 69.8 °F - 62.6 °F 78% 29.99 in 8.0 mi Calm Calm - N/A   Clear
5:55 AM 69.8 °F - 62.6 °F 78% 30.00 in 9.0 mi Calm Calm - N/A   Clear
6:15 AM 69.8 °F - 62.6 °F 78% 30.00 in 8.0 mi Calm Calm - N/A   Clear
6:35 AM 69.8 °F - 62.6 °F 78% 30.00 in 7.0 mi Calm Calm - N/A   Clear
6:50 AM 69.8 °F - 68.0 °F 94% 30.00 in 8.0 mi Calm Calm - N/A   Clear
7:50 AM 75.2 °F - 68.0 °F 78% 30.01 in 10.0 mi Calm Calm - N/A   Clear
8:50 AM 80.6 °F 83.9 °F 69.8 °F 70% 30.02 in 10.0 mi Calm Calm - N/A   Clear
9:50 AM 82.4 °F 86.3 °F 69.8 °F 66% 30.02 in 10.0 mi SSW 4.6 mph - N/A   Clear
11:50 AM 87.8 °F 92.6 °F 69.8 °F 55% 30.02 in 10.0 mi South 8.1 mph - N/A   Partly Cloudy
1:50 PM 89.6 °F 94.7 °F 69.8 °F 52% 29.99 in 10.0 mi WSW 4.6 mph - N/A   Mostly Cloudy
2:50 PM 91.4 °F 96.8 °F 69.8 °F 49% 29.98 in 7.0 mi WNW 5.8 mph - N/A Rain , Thunderstorm Thunderstorms and Rain
4:50 PM 80.6 °F 82.7 °F 66.2 °F 61% 29.96 in 10.0 mi SW 6.9 mph - N/A   Scattered Clouds
6:50 PM 69.8 °F - 62.6 °F 78% 30.04 in 7.0 mi SSE 9.2 mph - N/A Rain , Thunderstorm Thunderstorms and Rain
7:55 PM 69.8 °F - 62.6 °F 78% 30.05 in 8.0 mi Calm Calm - 0.06 in   Scattered Clouds
8:15 PM 69.8 °F - 62.6 °F 78% 30.05 in 3.0 mi Calm Calm - 0.03 in   Mostly Cloudy
8:35 PM 69.8 °F - 62.6 °F 78% 30.05 in 10.0 mi South 12.7 mph - 0.08 in   Overcast
8:55 PM 69.8 °F - 62.6 °F 78% 30.02 in 10.0 mi SSW 8.1 mph - 0.09 in   Scattered Clouds
9:15 PM 69.8 °F - 62.6 °F 78% 30.01 in 10.0 mi WSW 3.5 mph - N/A   Clear
9:35 PM 71.6 °F - 62.6 °F 73% 30.00 in 10.0 mi SW 8.1 mph - N/A   Clear
9:55 PM 71.6 °F - 62.6 °F 73% 29.99 in 10.0 mi SW 6.9 mph - N/A   Clear
10:15 PM 71.6 °F - 62.6 °F 73% 29.99 in 10.0 mi Calm Calm - N/A   Clear
10:35 PM 69.8 °F - 62.6 °F 78% 30.00 in 10.0 mi SSW 5.8 mph - N/A   Clear
11:15 PM 69.8 °F - 62.6 °F 78% 30.01 in 10.0 mi East 3.5 mph - N/A   Clear
11:35 PM 69.8 °F - 62.6 °F 78% 30.02 in 10.0 mi Calm Calm - N/A   Clear
11:55 PM 69.8 °F - 62.6 °F 78% 30.02 in 10.0 mi Calm Calm - N/A   Clear